STARLINK-3745 (52308 NORAD) Tracking and Keplerian Element Data

This shows tracking and keplerian element data for the satellite.

Feedback or suggestion? Click here.




ElementValue
Catalog52308
NameSTARLINK-3745
Epoch Orbit130
Epoch Day167.08334491
Epoch Year2022
RAAN100.6267
Inclination53.2158
Eccentricity0.0003904
Argument of Perigee2.8859
Mean Anonmoly310.1929
Mean Motion15.73222539
Decay Rate0.00038429
L11 52308U 22041AZ 22167.08334491 .00038429 00000+0 27663-3 0 9999
L22 52308 53.2158 100.6267 0003904 2.8859 310.1929 15.73222539 1302

Live tracking and technical data element details for STARLINK-3745 (NORAD 52308). STARLINK-3745 can be tracked NOW for your location showing map with azimuth and elevation plus other details from your city location.

Track the satellite on the map from your city or location and see movement details for azimuth, elevation, latitude, longitude, range, height, and movement on the map or in text.







IsCatalogInMostPopularTable: catalog: 52308, numindb: 3
Update: records affected: 1



GetName: 52308 STARLINK-3745

Hit Count: updated at: Mon, 27 Jun 2022 04:52:26 GMT